Home   Weather   Carrollton   Past weeks

Flag for USA Past Weather in Carrollton, Texas, USA — Yesterday and Last 2 Weeks

Now
49 °F

Sunny.


Feels Like: 47 °F
Forecast: 48 / 71 °F
Wind: 5 mph from North

Location: Dallas Love Field

Current Time: Apr 23, 2017 at 7:25:34 am

Latest Report: Apr 23, 2017 at 6:53 am


Visibility: 10 mi

Pressure: 30.14 "Hg

Humidity: 80%

Dew Point: 43 °F

Location of CarrolltonLocation

Past Weather in Carrollton — Graph

°F

Carrollton Temperature Yesterday

Maximum temperature yesterday: 62 °F (at 12:35 am)
Minimum temperature yesterday: 54 °F (at 11:53 pm)
Average temperature yesterday: 59 °F

High & Low Weather Summary for the Past Weeks

 TemperatureHumidityPressure
High85 °F (Apr 19, 5:53 pm)94% (Apr 11, 3:53 am)30.23 "Hg (Apr 11, 3:53 am)
Low50 °F (Apr 23, 5:53 am)43% (Apr 14, 4:53 pm)29.66 "Hg (Apr 21, 7:53 pm)
Average71 °F71%30.01 "Hg
* Reported Apr 8 5:53 am — Apr 23 5:53 am, Carrollton, Weather by CustomWeather, © 2017

Note: Actual official high and low records may vary slightly from our data, if they occured in-between our weather recording intervals... More about our weather records

Advertising

Carrollton Weather History for the Previous 24 Hours

Scroll right to see more
 ConditionsComfort  
Time TempWeatherWind HumidityBarometerVisibility
5:53 am
Sun, Apr 23
50 °FClear.6 mph77%30.14 "Hg10 mi
4:53 am51 °FClear.8 mph74%30.13 "Hg10 mi
3:53 am51 °FClear.7 mph74%30.12 "Hg10 mi
2:53 am52 °FClear.8 mph72%30.12 "Hg10 mi
1:53 am53 °FClear.9 mph69%30.13 "Hg10 mi
12:53 am53 °FClear.8 mph69%30.14 "Hg10 mi
11:53 pm
Sat, Apr 22
54 °FClear.7 mph69%30.15 "Hg10 mi
10:53 pm56 °FPassing clouds.8 mph62%30.15 "Hg10 mi
9:53 pm58 °FPassing clouds.12 mph60%30.14 "Hg10 mi
8:53 pm59 °FPassing clouds.9 mph58%30.12 "Hg10 mi
7:53 pm59 °FPassing clouds.9 mph56%30.10 "Hg10 mi
6:53 pm62 °FBroken clouds.17 mph50%30.09 "Hg10 mi
5:53 pm60 °FPartly sunny.17 mph56%30.09 "Hg10 mi
4:53 pm62 °FMostly cloudy.21 mph54%30.07 "Hg10 mi
3:53 pm61 °FMostly cloudy.20 mph56%30.07 "Hg10 mi
2:53 pm61 °FMostly cloudy.13 mph56%30.08 "Hg10 mi
2:01 pm60 °FMostly cloudy.17 mph58%30.09 "Hg10 mi
12:53 pm58 °FOvercast.15 mph62%30.08 "Hg10 mi
11:53 am58 °FPartly sunny.20 mph62%30.08 "Hg10 mi
10:53 am59 °FPartly sunny.16 mph62%30.06 "Hg10 mi
10:40 am58 °FPartly sunny.21 mph65%30.07 "Hg10 mi
9:53 am58 °FScattered clouds.21 mph65%30.02 "Hg10 mi
9:34 am58 °FScattered clouds.17 mph67%30.04 "Hg10 mi
8:53 am56 °FPartly sunny.17 mph70%30.04 "Hg10 mi
7:53 am56 °FPartly sunny.17 mph75%30.02 "Hg10 mi
Weather by CustomWeather, © 2017

See weather overviewHow to use our weather pages